| time (UTC) | temp F | wind direction | speed knots | gust knots | rain 1hr in | rain 24hr in | rain mn in | humidity % | barometer mb |
| 20260505112005 | 59 | 38 | 4.3 | 20.0 | 0.00 | 0.00 | 0.00 | 68 | 1013.6 |
| 20260505111505 | 59 | 40 | 6.1 | 20.0 | 0.00 | 0.00 | 0.00 | 68 | 1013.9 |
| 20260505111004 | 58 | 8 | 7.8 | 12.2 | 0.00 | 0.00 | 0.00 | 70 | 1013.9 |
| 20260505110503 | 58 | 17 | 6.1 | 12.2 | 0.00 | 0.00 | 0.00 | 70 | 1013.9 |
| 20260505102004 | 58 | 40 | 7.8 | 15.6 | 0.00 | 0.00 | 0.00 | 71 | 1014.2 |
| 20260505101504 | 57 | 84 | 6.1 | 13.9 | 0.00 | 0.00 | 0.00 | 73 | 1014.6 |
| 20260505101004 | 57 | 7 | 7.8 | 15.6 | 0.00 | 0.00 | 0.00 | 71 | 1014.2 |
| 20260505100504 | 57 | 58 | 6.1 | 15.6 | 0.00 | 0.00 | 0.00 | 72 | 1014.2 |
| 20260505100006 | 57 | 34 | 6.1 | 8.7 | 0.00 | 0.00 | 0.00 | 72 | 1014.2 |
| 20260505095504 | 56 | 38 | 6.1 | 12.2 | 0.00 | 0.00 | 0.00 | 74 | 1014.6 |
| 20260505095004 | 56 | 29 | 6.1 | 13.9 | 0.00 | 0.00 | 0.00 | 74 | 1014.6 |
| 20260505094504 | 56 | 19 | 5.2 | 13.9 | 0.00 | 0.00 | 0.00 | 75 | 1014.6 |
| 20260505094004 | 55 | 33 | 4.3 | 15.6 | 0.00 | 0.00 | 0.00 | 75 | 1014.6 |
| 20260505093504 | 55 | 3 | 7.0 | 15.6 | 0.00 | 0.00 | 0.00 | 76 | 1014.6 |
| 20260505092503 | 55 | 3 | 8.7 | 15.6 | 0.00 | 0.00 | 0.00 | 77 | 1014.6 |
| 20260505091003 | 54 | 50 | 6.1 | 15.6 | 0.00 | 0.00 | 0.00 | 79 | 1014.6 |
| 20260505090504 | 53 | 9 | 5.2 | 15.6 | 0.00 | 0.00 | 0.00 | 79 | 1014.6 |
| 20260505090005 | 54 | 28 | 8.7 | 15.6 | 0.00 | 0.00 | 0.00 | 79 | 1014.6 |
| 20260505085004 | 54 | 36 | 7.8 | 13.9 | 0.00 | 0.00 | 0.00 | 80 | 1014.6 |
| 20260505084504 | 53 | 4 | 7.0 | 12.2 | 0.00 | 0.00 | 0.00 | 81 | 1014.6 |
| 20260505083504 | 52 | 9 | 6.1 | 11.3 | 0.00 | 0.00 | 0.00 | 84 | 1013.9 |
| 20260505083005 | 52 | 357 | 6.1 | 12.2 | 0.00 | 0.00 | 0.00 | 86 | 1014.2 |
| 20260505082504 | 52 | 28 | 7.0 | 12.2 | 0.00 | 0.00 | 0.00 | 87 | 1014.9 |
| 20260505082005 | 51 | 331 | 4.3 | 10.4 | 0.00 | 0.00 | 0.00 | 87 | 1014.9 |
| 20260505081504 | 51 | 62 | 5.2 | 13.9 | 0.00 | 0.00 | 0.00 | 88 | 1014.6 |
| 20260505081004 | 51 | 332 | 8.7 | 13.9 | 0.00 | 0.00 | 0.00 | 88 | 1014.9 |
| 20260505080504 | 51 | 36 | 4.3 | 10.4 | 0.00 | 0.00 | 0.00 | 88 | 1014.9 |
| 20260505080005 | 51 | 22 | 1.7 | 12.2 | 0.00 | 0.00 | 0.00 | 88 | 1013.9 |
| 20260505075504 | 51 | 19 | 7.8 | 12.2 | 0.00 | 0.00 | 0.00 | 88 | 1014.9 |
| 20260505075005 | 52 | 328 | 8.7 | 10.4 | 0.00 | 0.00 | 0.00 | 87 | 1014.6 |
| 20260505074505 | 52 | 2 | 6.1 | 15.6 | 0.00 | 0.00 | 0.00 | 87 | 1014.2 |
| 20260505074004 | 51 | 35 | 7.8 | 18.2 | 0.00 | 0.00 | 0.00 | 87 | 1014.6 |
| 20260505073504 | 51 | 8 | 13.9 | 18.2 | 0.00 | 0.00 | 0.00 | 88 | 1014.9 |
| 20260505073004 | 51 | 63 | 10.4 | 13.9 | 0.00 | 0.00 | 0.00 | 88 | 1014.6 |
| 20260505072504 | 51 | 14 | 7.0 | 18.2 | 0.00 | 0.00 | 0.00 | 88 | 1014.9 |
| 20260505072004 | 51 | 56 | 7.8 | 18.2 | 0.00 | 0.00 | 0.00 | 88 | 1014.6 |
| 20260505071504 | 51 | 69 | 2.6 | 10.4 | 0.00 | 0.00 | 0.00 | 89 | 1014.2 |
| 20260505071003 | 51 | 11 | 5.2 | 13.9 | 0.00 | 0.00 | 0.00 | 89 | 1014.9 |
| 20260505070504 | 51 | 347 | 5.2 | 13.9 | 0.00 | 0.00 | 0.00 | 90 | 1014.9 |
| 20260505070005 | 51 | 37 | 7.0 | 10.4 | 0.00 | 0.00 | 0.00 | 91 | 1015.2 |
| 20260505065505 | 50 | 29 | 1.7 | 10.4 | 0.00 | 0.00 | 0.00 | 92 | 1014.9 |
| 20260505065004 | 50 | 329 | 5.2 | 10.4 | 0.00 | 0.00 | 0.00 | 92 | 1014.9 |
| 20260505063503 | 49 | 334 | 5.2 | 12.2 | 0.00 | 0.00 | 0.00 | 93 | 1014.6 |
| 20260505063004 | 49 | 343 | 5.2 | 10.4 | 0.00 | 0.00 | 0.00 | 94 | 1014.9 |
| 20260505062504 | 48 | 24 | 5.2 | 6.1 | 0.00 | 0.00 | 0.00 | 95 | 1014.9 |
| 20260505062004 | 48 | 23 | 0.0 | 6.1 | 0.00 | 0.00 | 0.00 | 95 | 1014.6 |
| 20260505061504 | 47 | 33 | 2.6 | 6.1 | 0.00 | 0.00 | 0.00 | 95 | 1014.9 |
| 20260505061004 | 47 | 15 | 1.7 | 2.6 | 0.00 | 0.00 | 0.00 | 95 | 1013.5 |
| 20260505060504 | 47 | 353 | 1.7 | 2.6 | 0.00 | 0.00 | 0.00 | 95 | 1013.9 |
| 20260505060004 | 47 | 38 | 1.7 | 4.3 | 0.00 | 0.00 | 0.00 | 96 | 1013.5 |
| 20260505055503 | 47 | 16 | 1.7 | 6.1 | 0.00 | 0.00 | 0.00 | 96 | 1013.5 |
| 20260505055004 | 47 | 18 | 5.2 | 6.1 | 0.00 | 0.00 | 0.00 | 96 | 1013.9 |
| 20260505054504 | 47 | 46 | 1.7 | 6.1 | 0.00 | 0.00 | 0.00 | 96 | 1013.9 |
| 20260505054005 | 47 | 35 | 2.6 | 6.1 | 0.00 | 0.00 | 0.00 | 96 | 1013.9 |
| 20260505053503 | 47 | 39 | 0.9 | 10.4 | 0.00 | 0.00 | 0.00 | 96 | 1014.9 |
| 20260505052504 | 46 | 26 | 4.3 | 12.2 | 0.00 | 0.00 | 0.00 | 96 | 1014.9 |
| 20260505052004 | 46 | 21 | 5.2 | 12.2 | 0.00 | 0.00 | 0.00 | 96 | 1014.9 |
| 20260505051505 | 46 | 18 | 2.6 | 7.8 | 0.00 | 0.00 | 0.00 | 96 | 1014.6 |
| 20260505051005 | 46 | 14 | 1.7 | 7.8 | 0.00 | 0.00 | 0.00 | 96 | 1014.9 |
| 20260505050505 | 46 | 22 | 4.3 | 7.8 | 0.00 | 0.00 | 0.00 | 96 | 1014.9 |
| 20260505041504 | 46 | 356 | 0.9 | 6.1 | 0.00 | 0.00 | 0.00 | 95 | 1014.5 |
| 20260505041004 | 46 | 353 | 1.7 | 4.3 | 0.00 | 0.00 | 0.00 | 95 | 1014.3 |
| 20260505040503 | 47 | 4 | 1.7 | 4.3 | 0.00 | 0.00 | 0.00 | 95 | 1015.2 |
| 20260505040005 | 47 | 357 | 0.9 | 4.3 | 0.00 | 0.00 | 0.00 | 95 | 1015.2 |
| 20260505035505 | 47 | 26 | 0.0 | 4.3 | 0.00 | 0.00 | 0.00 | 95 | 1015.2 |
| 20260505035005 | 47 | 19 | 0.9 | 4.3 | 0.00 | 0.00 | 0.00 | 95 | 1014.9 |
| 20260505034504 | 47 | 28 | 0.9 | 4.3 | 0.00 | 0.00 | 0.00 | 95 | 1015.2 |
| 20260505033503 | 47 | 29 | 0.0 | 0.0 | 0.00 | 0.00 | 0.00 | 95 | 1014.2 |
| 20260505033004 | 46 | 29 | 0.0 | 0.0 | 0.00 | 0.00 | 0.00 | 95 | 1014.2 |
| 20260505032505 | 47 | 29 | 0.0 | 0.0 | 0.00 | 0.00 | 0.00 | 95 | 1014.9 |
| 20260505032004 | 47 | 29 | 0.0 | 0.0 | 0.00 | 0.00 | 0.00 | 94 | 1014.2 |
| 20260505031504 | 48 | 29 | 0.0 | 0.0 | 0.00 | 0.00 | 0.00 | 94 | 1013.9 |
| 20260505031004 | 48 | 29 | 0.0 | 0.0 | 0.00 | 0.00 | 0.00 | 94 | 1013.9 |
| 20260505030503 | 47 | 81 | 0.0 | 0.0 | 0.00 | 0.00 | 0.00 | 94 | 1014.2 |
| 20260505030004 | 47 | 86 | 0.0 | 0.0 | 0.00 | 0.00 | 0.00 | 94 | 1014.9 |
| 20260505025504 | 47 | 86 | 0.0 | 0.0 | 0.00 | 0.00 | 0.00 | 94 | 1013.9 |
| 20260505024504 | 48 | 86 | 0.0 | 0.0 | 0.00 | 0.00 | 0.00 | 93 | 1014.9 |
| 20260505022504 | 49 | 35 | 1.7 | 4.3 | 0.00 | 0.00 | 0.00 | 93 | 1013.9 |
| 20260505021504 | 49 | 1 | 0.9 | 1.7 | 0.00 | 0.00 | 0.00 | 93 | 1014.2 |
| 20260505021005 | 49 | 28 | 1.7 | 2.6 | 0.00 | 0.00 | 0.00 | 92 | 1013.9 |
| 20260505020504 | 50 | 306 | 2.6 | 7.8 | 0.00 | 0.00 | 0.00 | 92 | 1013.9 |
| 20260505020005 | 50 | 343 | 6.1 | 7.8 | 0.00 | 0.00 | 0.00 | 92 | 1014.9 |
| 20260505015504 | 50 | 355 | 2.6 | 6.1 | 0.00 | 0.00 | 0.00 | 92 | 1014.9 |
| 20260505015003 | 50 | 355 | 4.3 | 7.8 | 0.00 | 0.00 | 0.00 | 92 | 1015.2 |
| 20260505014505 | 50 | 22 | 5.2 | 7.8 | 0.00 | 0.00 | 0.00 | 91 | 1014.9 |
| 20260505013505 | 51 | 20 | 0.0 | 4.3 | 0.00 | 0.00 | 0.00 | 91 | 1015.2 |
| 20260505012504 | 51 | 129 | 0.0 | 2.6 | 0.00 | 0.00 | 0.00 | 91 | 1015.2 |
| 20260505012005 | 51 | 60 | 1.7 | 2.6 | 0.00 | 0.00 | 0.00 | 90 | 1014.2 |
| 20260505011504 | 52 | 11 | 2.6 | 4.3 | 0.00 | 0.00 | 0.00 | 90 | 1014.6 |
| 20260505011004 | 52 | 30 | 2.6 | 7.0 | 0.00 | 0.00 | 0.00 | 90 | 1014.6 |
| 20260505010504 | 52 | 55 | 5.2 | 7.0 | 0.00 | 0.00 | 0.00 | 89 | 1014.2 |
| 20260505010004 | 52 | 32 | 2.6 | 2.6 | 0.00 | 0.00 | 0.00 | 89 | 1014.6 |
| 20260505005004 | 52 | 24 | 2.6 | 6.1 | 0.00 | 0.00 | 0.00 | 89 | 1015.6 |
| 20260505004504 | 52 | 20 | 1.7 | 7.8 | 0.00 | 0.00 | 0.00 | 89 | 1015.6 |
| 20260505004004 | 52 | 52 | 1.7 | 7.8 | 0.00 | 0.00 | 0.00 | 89 | 1015.6 |
| 20260505003505 | 52 | 36 | 2.6 | 10.4 | 0.00 | 0.00 | 0.00 | 89 | 1015.6 |
| 20260505003004 | 53 | 62 | 7.0 | 10.4 | 0.00 | 0.00 | 0.00 | 89 | 1015.6 |
| 20260505002504 | 53 | 12 | 1.7 | 7.8 | 0.00 | 0.00 | 0.00 | 89 | 1015.6 |
| 20260505001504 | 53 | 39 | 4.3 | 6.1 | 0.00 | 0.00 | 0.00 | 89 | 1015.6 |
| 20260505001004 | 53 | 35 | 0.9 | 4.3 | 0.00 | 0.00 | 0.00 | 89 | 1014.6 |
| 20260505000504 | 53 | 31 | 2.6 | 4.3 | 0.00 | 0.00 | 0.00 | 89 | 1014.6 |
| 20260504235504 | 53 | 33 | 2.6 | 2.6 | 0.00 | 0.00 | 0.00 | 89 | 1014.9 |
| 20260504235003 | 53 | 63 | 0.9 | 2.6 | 0.00 | 0.00 | 0.00 | 89 | 1014.9 |
| 20260504234004 | 53 | 35 | 4.3 | 4.3 | 0.00 | 0.00 | 0.00 | 88 | 1014.9 |
| 20260504233503 | 53 | 35 | 2.6 | 6.1 | 0.00 | 0.00 | 0.00 | 88 | 1014.9 |
| 20260504233005 | 53 | 45 | 4.3 | 6.1 | 0.00 | 0.00 | 0.00 | 88 | 1015.9 |
| 20260504232504 | 53 | 11 | 0.9 | 6.1 | 0.00 | 0.00 | 0.00 | 88 | 1015.6 |
| 20260504232004 | 54 | 36 | 2.6 | 6.1 | 0.00 | 0.00 | 0.00 | 88 | 1015.6 |
| 20260504231505 | 54 | 65 | 2.6 | 7.8 | 0.00 | 0.00 | 0.00 | 87 | 1015.9 |
| 20260504231004 | 54 | 25 | 5.2 | 7.8 | 0.00 | 0.00 | 0.00 | 87 | 1015.6 |
| 20260504230504 | 54 | 46 | 5.2 | 7.8 | 0.00 | 0.00 | 0.00 | 87 | 1015.9 |
| 20260504225504 | 54 | 55 | 0.9 | 7.8 | 0.00 | 0.00 | 0.00 | 87 | 1015.6 |
| 20260504225003 | 54 | 44 | 4.3 | 7.8 | 0.00 | 0.00 | 0.00 | 86 | 1015.9 |
| 20260504223505 | 54 | 314 | 2.6 | 10.4 | 0.00 | 0.00 | 0.00 | 86 | 1015.6 |
| 20260504223003 | 54 | 36 | 1.7 | 10.4 | 0.00 | 0.00 | 0.00 | 86 | 1015.9 |
| 20260504222505 | 54 | 23 | 2.6 | 10.4 | 0.00 | 0.00 | 0.00 | 86 | 1014.9 |
| 20260504222004 | 54 | 29 | 7.0 | 10.4 | 0.00 | 0.00 | 0.00 | 86 | 1015.9 |
| 20260504220504 | 54 | 48 | 2.6 | 6.1 | 0.00 | 0.00 | 0.00 | 87 | 1014.9 |
| 20260504220004 | 54 | 8 | 1.7 | 7.8 | 0.00 | 0.00 | 0.00 | 87 | 1016.3 |
| 20260504215504 | 54 | 28 | 2.6 | 10.4 | 0.00 | 0.00 | 0.00 | 87 | 1015.6 |
| 20260504215003 | 54 | 21 | 5.2 | 10.4 | 0.00 | 0.00 | 0.00 | 87 | 1015.9 |
| 20260504214504 | 54 | 48 | 5.2 | 10.4 | 0.00 | 0.00 | 0.00 | 87 | 1015.6 |
| 20260504214004 | 54 | 59 | 4.3 | 10.4 | 0.00 | 0.00 | 0.00 | 87 | 1015.9 |
| 20260504213504 | 54 | 58 | 6.1 | 10.4 | 0.00 | 0.00 | 0.00 | 87 | 1015.9 |
| 20260504213005 | 54 | 36 | 1.7 | 10.4 | 0.00 | 0.00 | 0.00 | 87 | 1016.3 |
| 20260504212504 | 54 | 64 | 7.0 | 10.4 | 0.00 | 0.00 | 0.00 | 87 | 1015.9 |
| 20260504212004 | 54 | 27 | 2.6 | 4.3 | 0.00 | 0.00 | 0.00 | 87 | 1015.2 |
| 20260504211004 | 54 | 32 | 4.3 | 7.8 | 0.00 | 0.00 | 0.00 | 87 | 1015.9 |
| 20260504210504 | 54 | 35 | 1.7 | 6.1 | 0.00 | 0.00 | 0.00 | 87 | 1015.9 |
| 20260504205505 | 54 | 23 | 2.6 | 6.1 | 0.00 | 0.00 | 0.00 | 87 | 1015.2 |
| 20260504205005 | 54 | 103 | 1.7 | 6.1 | 0.00 | 0.00 | 0.00 | 87 | 1015.2 |
| 20260504204504 | 54 | 37 | 1.7 | 2.6 | 0.00 | 0.00 | 0.00 | 87 | 1015.2 |
| 20260504204005 | 54 | 36 | 0.9 | 6.1 | 0.00 | 0.00 | 0.00 | 87 | 1015.8 |
| 20260504203505 | 55 | 24 | 3.5 | 6.1 | 0.00 | 0.00 | 0.00 | 87 | 1015.9 |
| 20260504203004 | 55 | 25 | 4.3 | 6.1 | 0.00 | 0.00 | 0.00 | 87 | 1015.9 |
| 20260504202504 | 55 | 20 | 2.6 | 7.8 | 0.00 | 0.00 | 0.00 | 87 | 1015.7 |
| 20260504202004 | 55 | 25 | 1.7 | 7.8 | 0.00 | 0.00 | 0.00 | 87 | 1015.8 |
| 20260504201504 | 55 | 25 | 1.7 | 6.1 | 0.00 | 0.00 | 0.00 | 87 | 1015.5 |
| 20260504201004 | 55 | 25 | 1.7 | 4.3 | 0.00 | 0.00 | 0.00 | 87 | 1015.6 |
| 20260504200505 | 55 | 20 | 0.9 | 4.3 | 0.00 | 0.00 | 0.00 | 87 | 1015.9 |
| 20260504200004 | 55 | 30 | 2.6 | 4.3 | 0.00 | 0.00 | 0.00 | 87 | 1015.9 |
| 20260504195505 | 55 | 26 | 1.7 | 4.3 | 0.00 | 0.00 | 0.00 | 87 | 1015.5 |
| 20260504195003 | 55 | 346 | 0.9 | 1.7 | 0.00 | 0.00 | 0.00 | 87 | 1015.0 |
| 20260504194504 | 55 | 355 | 0.0 | 1.7 | 0.00 | 0.00 | 0.00 | 87 | 1015.1 |
| 20260504193504 | 55 | 32 | 4.3 | 7.8 | 0.00 | 0.00 | 0.00 | 87 | 1015.6 |
| 20260504193005 | 55 | 27 | 3.5 | 7.8 | 0.00 | 0.00 | 0.00 | 87 | 1015.5 |
| 20260504192504 | 55 | 25 | 1.7 | 7.8 | 0.00 | 0.00 | 0.00 | 86 | 1015.2 |
| 20260504192004 | 56 | 36 | 3.5 | 6.1 | 0.00 | 0.00 | 0.00 | 86 | 1015.2 |
| 20260504191504 | 56 | 43 | 3.5 | 6.1 | 0.00 | 0.00 | 0.00 | 85 | 1014.6 |
| 20260504191003 | 56 | 27 | 4.3 | 8.7 | 0.00 | 0.00 | 0.00 | 85 | 1015.2 |
| 20260504190504 | 56 | 23 | 5.2 | 8.7 | 0.00 | 0.00 | 0.00 | 85 | 1014.9 |
| 20260504190005 | 56 | 42 | 4.3 | 4.3 | 0.00 | 0.00 | 0.00 | 85 | 1014.9 |
| 20260504185503 | 56 | 28 | 2.6 | 6.1 | 0.00 | 0.00 | 0.00 | 84 | 1014.9 |
| 20260504185004 | 56 | 95 | 4.3 | 7.8 | 0.00 | 0.00 | 0.00 | 84 | 1015.2 |
| 20260504184004 | 56 | 35 | 2.6 | 7.8 | 0.00 | 0.00 | 0.00 | 84 | 1015.2 |
| 20260504183504 | 56 | 117 | 4.3 | 7.8 | 0.00 | 0.00 | 0.00 | 84 | 1015.2 |
| 20260504183004 | 57 | 64 | 2.6 | 10.4 | 0.00 | 0.00 | 0.00 | 84 | 1015.2 |
| 20260504182504 | 57 | 70 | 3.5 | 10.4 | 0.00 | 0.00 | 0.00 | 84 | 1014.9 |
| 20260504182004 | 57 | 30 | 1.7 | 2.6 | 0.00 | 0.00 | 0.00 | 84 | 1014.6 |
| 20260504181503 | 56 | 21 | 2.6 | 4.3 | 0.00 | 0.00 | 0.00 | 84 | 1014.6 |
| 20260504181004 | 57 | 34 | 4.3 | 10.4 | 0.00 | 0.00 | 0.00 | 84 | 1014.6 |
| 20260504180504 | 57 | 4 | 6.1 | 10.4 | 0.00 | 0.00 | 0.00 | 84 | 1014.9 |
| 20260504180005 | 57 | 58 | 0.9 | 7.0 | 0.00 | 0.00 | 0.00 | 84 | 1014.6 |
| 20260504175003 | 57 | 84 | 5.2 | 10.4 | 0.00 | 0.00 | 0.00 | 84 | 1014.2 |
| 20260504174004 | 57 | 22 | 8.7 | 13.9 | 0.00 | 0.00 | 0.00 | 84 | 1015.2 |
| 20260504173505 | 56 | 24 | 2.6 | 7.8 | 0.00 | 0.00 | 0.00 | 85 | 1015.2 |
| 20260504173005 | 56 | 58 | 6.1 | 10.4 | 0.00 | 0.00 | 0.00 | 85 | 1014.9 |
| 20260504172504 | 56 | 46 | 8.7 | 10.4 | 0.00 | 0.00 | 0.00 | 84 | 1014.9 |
| 20260504172004 | 56 | 44 | 6.1 | 12.2 | 0.00 | 0.00 | 0.00 | 84 | 1014.2 |
| 20260504171004 | 57 | 63 | 7.0 | 13.9 | 0.00 | 0.00 | 0.00 | 83 | 1014.9 |
| 20260504170503 | 57 | 73 | 4.3 | 6.1 | 0.00 | 0.00 | 0.00 | 83 | 1014.9 |
| 20260504151004 | 60 | 36 | 2.6 | 12.2 | 0.00 | 0.00 | 0.00 | 79 | 1014.6 |
| 20260504150505 | 60 | 67 | 5.2 | 18.2 | 0.00 | 0.00 | 0.00 | 78 | 1014.9 |
| 20260504141003 | 62 | 69 | 2.6 | 7.8 | 0.00 | 0.00 | 0.00 | 73 | 1014.6 |
| 20260504140505 | 62 | 36 | 2.6 | 4.3 | 0.00 | 0.00 | 0.00 | 73 | 1014.2 |
| 20260504130505 | 62 | 68 | 4.3 | 7.8 | 0.00 | 0.00 | 0.00 | 73 | 1014.6 |